Retour au catalogue

STARLINK-30855

ActifCommunicationsVLEO
NORAD 58222·PAYLOAD·🇺🇸 United States

Lancé Nov 3, 2023 depuis Cape Canaveral Space Force Station

Loading…

Prochains Passages (prochaines 24 heures)

TLE

FraisSource: CelesTrak SupGP

Époque: Sep 15, 2026, 03:19 UTC

1 58222C 23170S   26258.13868056  .00014782  00000+0  53538-3 0  2588
2 58222  43.0017 204.5964 0001198 268.9679 313.0134 15.27574134    17

Suivez STARLINK-30855 en temps réel avec AllMySat

Download on the App Store